Temp
81 80 76 77 79 81 81 83 85 85 82 82 78 76 76 76 74 72 72 71 72 70 70 71 72 72 72 72 72 72 71 70 70
78 79 80 78 80 83 81 79 85 84 82 82 77 76 76 75 74 73 73 73 71 70 72 72 72 71 70 70 70 71 70 68 68
77 78 82 81 80 84 80 81 84 85 82 79 77 77 77 76 73 73 73 72 71 72 72 72 71 70 70 70 70 70 69 67 67
75 77 80 79 83 86 83 78 82 81 79 78 77 76 76 74 74 73 72 72 72 71 71 70 70 70 69 69 68 68 67 67 67
76 76 79 83 82 80 80 81 79 79 78 78 77 76 75 73 73 72 72 71 71 71 70 70 69 69 68 68 67 67 67 67 65
76 76 76 77 77 76 78 78 78 78 77 77 77 76 75 73 72 72 71 70 70 71 70 69 69 69 68 67 66 66 66 67 68
79 77 76 75 74 72 75 76 76 76 76 77 77 76 75 73 72 72 71 70 70 69 69 68 68 67 65 64 64 63 64 64 62
76 76 75 75 72 71 73 74 76 76 77 77 76 75 74 72 71 71 70 69 69 68 68 68 67 64 62 62 63 66 61 61 60
77 77 77 76 74 74 75 75 76 77 76 76 76 74 71 70 71 72 70 69 68 67 67 66 65 62 61 61 66 67 67 61 58
79 80 79 77 76 76 76 77 77 76 76 75 74 71 70 70 71 70 69 68 67 66 65 64 62 61 60 58 58 65 66 66 58
80 83 79 78 77 77 78 78 78 76 75 74 72 71 70 70 70 69 68 67 66 65 64 62 60 60 58 57 59 64 65 65 57
81 82 83 81 81 79 78 77 76 76 73 73 72 71 70 70 70 68 66 66 67 65 62 60 60 59 58 58 58 63 63 60 55
82 85 81 80 81 80 79 77 77 75 72 72 71 71 70 70 68 67 68 68 66 62 61 60 61 60 59 60 58 61 62 58 55
80 81 79 82 82 80 79 77 76 71 71 70 70 72 70 68 69 68 69 67 63 60 60 59 59 59 58 59 58 58 60 60 54
79 76 77 82 80 79 76 75 72 70 69 70 71 70 68 67 68 69 66 63 60 62 62 58 59 59 56 58 58 58 58 59 60
78 77 76 80 77 72 71 72 72 68 69 70 69 69 66 66 66 66 66 63 62 59 61 61 61 60 56 54 55 55 58 58 58
74 76 74 74 72 69 68 70 71 70 69 68 67 64 63 63 65 65 65 64 63 62 61 61 60 57 53 52 53 54 55 56 54
72 70 70 70 70 69 69 69 68 68 68 68 67 66 64 63 63 62 62 62 61 63 63 64 58 54 53 52 52 54 55 54 54
68 67 67 67 68 68 69 69 67 67 68 68 65 63 64 60 63 63 61 60 58 54 55 53 52 52 54 54 54 53 51 49 48
66 67 66 67 68 68 68 68 67 67 67 66 65 64 61 64 63 63 60 61 62 59 56 52 51 52 53 53 54 52 48 45 46
MSLP
1003.08 1003.08 1003.51 1004.11 1004.71 1004.96 1004.95 1005.13 1005.73 1006.29 1006.95 1007.54 1008.15 1008.74 1009.48 1010.22 1010.71 1011.37 1011.81 1012.22 1012.49 1012.78 1012.99 1013.13 1013.37 1013.40 1013.49 1013.55 1013.41 1013.54 1013.56 1013.66 1013.74
1002.80 1002.77 1002.74 1003.31 1003.82 1004.38 1004.87 1004.72 1004.98 1005.45 1006.12 1007.03 1007.90 1008.60 1009.47 1010.28 1010.63 1011.29 1011.80 1011.99 1012.29 1012.56 1012.74 1013.00 1013.33 1013.47 1013.52 1013.71 1013.56 1013.70 1013.92 1014.16 1014.19
1002.43 1001.97 1002.15 1002.60 1003.28 1003.93 1004.10 1004.11 1004.48 1005.16 1006.05 1006.81 1007.72 1008.55 1009.38 1010.11 1010.71 1011.12 1011.52 1011.81 1012.22 1012.63 1012.86 1013.10 1013.37 1013.61 1013.83 1013.96 1013.91 1014.01 1014.09 1014.40 1014.48
1003.09 1002.28 1001.49 1001.93 1002.66 1003.05 1003.46 1003.95 1004.37 1005.12 1006.06 1006.89 1007.78 1008.53 1009.27 1010.05 1010.71 1011.14 1011.51 1011.93 1012.30 1012.68 1012.98 1013.23 1013.48 1013.89 1014.11 1014.19 1014.28 1014.39 1014.46 1014.66 1014.73
1001.22 1001.48 1001.75 1001.85 1002.20 1002.50 1003.20 1003.81 1004.41 1005.18 1006.02 1006.83 1007.56 1008.27 1009.16 1010.05 1010.70 1011.15 1011.62 1012.04 1012.42 1012.74 1013.13 1013.45 1013.82 1014.18 1014.35 1014.51 1014.55 1014.61 1014.64 1014.88 1014.96
1000.88 1001.50 1001.99 1001.66 1002.02 1002.70 1003.22 1003.96 1004.69 1005.30 1005.99 1006.77 1007.57 1008.36 1009.22 1010.00 1010.59 1011.08 1011.63 1012.14 1012.55 1012.79 1013.27 1013.65 1014.04 1014.33 1014.64 1014.88 1015.02 1015.06 1014.96 1014.88 1015.01
1000.37 1001.19 1002.05 1002.02 1002.40 1003.00 1003.39 1004.07 1004.67 1005.40 1006.22 1006.91 1007.69 1008.46 1009.16 1009.76 1010.43 1010.97 1011.58 1012.16 1012.55 1012.91 1013.35 1013.86 1014.29 1014.60 1014.88 1015.14 1015.26 1015.32 1015.25 1015.31 1015.51
1000.12 1000.93 1002.00 1001.97 1002.63 1003.34 1003.80 1004.27 1004.90 1005.46 1006.11 1006.79 1007.54 1008.37 1009.05 1009.77 1010.42 1010.98 1011.65 1012.26 1012.53 1012.89 1013.26 1013.62 1014.11 1014.55 1014.97 1015.23 1015.43 1015.56 1015.66 1015.76 1015.86
1000.39 1000.84 1001.28 1001.77 1002.34 1003.00 1003.60 1004.01 1004.58 1005.23 1005.95 1006.77 1007.51 1008.38 1009.13 1009.74 1010.37 1010.87 1011.60 1012.17 1012.66 1013.09 1013.54 1013.91 1014.28 1014.76 1015.09 1015.39 1015.58 1015.75 1015.89 1015.90 1016.06
999.87 1000.08 1000.50 1001.15 1001.70 1002.21 1002.89 1003.47 1004.05 1005.07 1005.95 1006.77 1007.49 1008.14 1008.85 1009.71 1010.57 1011.26 1011.89 1012.26 1012.77 1013.39 1013.85 1014.20 1014.73 1015.21 1015.45 1015.56 1015.56 1015.70 1016.00 1016.10 1016.23
999.02 999.48 1000.05 1000.81 1001.66 1002.31 1002.88 1003.39 1004.21 1004.93 1005.75 1006.62 1007.40 1008.12 1008.78 1009.59 1010.42 1011.09 1011.71 1012.45 1013.09 1013.55 1014.02 1014.62 1015.14 1015.55 1015.85 1016.11 1016.10 1015.71 1015.81 1016.08 1016.31
998.25 998.48 999.06 999.63 1000.46 1001.57 1002.52 1003.29 1003.81 1004.59 1005.74 1006.45 1007.28 1008.14 1008.81 1009.67 1010.49 1011.29 1011.99 1012.51 1012.99 1013.57 1014.27 1014.90 1015.32 1015.55 1015.96 1016.02 1015.96 1015.81 1015.76 1015.93 1016.37
998.03 998.15 998.70 999.41 1000.04 1000.97 1001.90 1002.91 1003.82 1004.84 1005.84 1006.62 1007.24 1007.99 1008.98 1009.76 1010.49 1011.23 1011.93 1012.38 1013.07 1013.68 1014.17 1014.73 1015.06 1015.48 1015.62 1015.75 1015.98 1016.07 1016.01 1016.08 1016.43
999.34 998.42 998.49 998.98 999.79 1000.27 1001.29 1002.85 1004.08 1005.22 1005.93 1006.48 1007.40 1008.49 1009.27 1010.22 1010.74 1011.30 1011.81 1012.64 1013.18 1013.76 1014.35 1014.87 1015.18 1015.19 1015.37 1015.92 1016.07 1016.03 1016.05 1016.07 1016.43
998.87 998.77 998.99 999.21 1000.04 1001.10 1002.11 1002.79 1004.20 1005.63 1006.78 1007.58 1008.22 1008.80 1009.70 1010.28 1011.04 1011.44 1012.19 1012.77 1013.53 1013.69 1014.34 1014.53 1015.28 1015.70 1015.48 1015.58 1015.82 1015.84 1015.85 1015.79 1015.92
1000.22 999.67 999.46 999.98 1000.67 1001.54 1002.51 1003.32 1004.14 1005.45 1006.00 1006.75 1008.52 1009.15 1010.18 1010.51 1011.18 1011.89 1012.41 1013.16 1013.47 1014.10 1014.37 1014.76 1014.87 1015.12 1015.43 1015.56 1015.74 1015.89 1015.78 1015.61 1015.53
1001.21 1001.00 1000.82 1000.74 1001.37 1002.14 1003.01 1003.60 1003.97 1005.40 1006.56 1007.39 1009.04 1010.34 1010.51 1010.03 1011.67 1011.67 1011.86 1012.55 1013.18 1013.79 1014.23 1014.54 1014.50 1014.92 1015.49 1015.68 1015.92 1015.89 1015.72 1015.55 1015.66
1002.59 1002.60 1001.87 1002.32 1002.13 1002.53 1003.04 1003.89 1004.87 1005.64 1006.48 1006.92 1007.81 1007.84 1008.89 1010.21 1009.97 1011.36 1012.29 1012.76 1013.33 1013.52 1013.74 1013.62 1014.09 1014.98 1015.52 1015.70 1015.83 1015.62 1015.36 1015.37 1015.58
1003.67 1003.22 1002.79 1003.38 1003.41 1003.32 1003.64 1003.52 1004.81 1005.55 1005.74 1006.23 1007.12 1007.98 1009.18 1010.71 1011.20 1012.04 1012.62 1012.50 1013.62 1013.70 1013.57 1013.75 1013.99 1014.37 1014.70 1015.15 1014.88 1015.04 1014.99 1015.04 1015.22
1003.61 1003.62 1003.95 1003.80 1004.03 1004.28 1004.32 1004.77 1005.30 1005.63 1005.92 1006.54 1007.42 1008.01 1009.27 1010.45 1011.04 1012.05 1012.49 1012.99 1013.44 1013.75 1013.95 1014.15 1014.44 1014.35 1014.20 1014.44 1014.33 1014.74 1014.57 1014.67 1015.20
Wind_Speed
2 4 8 8 14 15 13 15 16 17 17 14 10 8 8 7 8 6 5 5 4 3 3 4 3 5 5 5 5 4 4 3 4
7 10 14 11 11 17 13 12 17 18 16 12 8 9 8 7 7 7 6 6 5 4 5 4 5 6 6 5 5 5 6 4 4
9 10 15 13 12 17 11 11 13 13 12 12 10 11 9 8 7 7 6 6 7 6 5 4 6 6 6 5 6 6 6 5 5
8 8 15 15 17 16 15 7 10 11 12 13 13 11 9 10 8 7 6 6 6 6 6 6 7 6 5 6 6 6 6 5 6
6 4 8 16 14 10 10 10 11 13 13 13 13 11 10 9 8 7 7 6 7 7 7 6 7 6 6 5 5 5 6 5 5
6 2 5 6 9 9 12 12 12 13 13 13 12 11 11 10 8 7 7 7 7 7 6 6 6 5 5 5 4 3 1 5 6
11 7 8 7 8 7 9 10 12 12 12 12 12 12 12 11 8 8 8 7 6 7 7 7 6 6 6 6 6 6 5 6 7
6 9 8 8 8 8 9 11 11 12 13 13 13 13 12 10 7 8 8 8 9 8 7 7 7 8 7 6 5 3 5 5 6
8 10 9 9 11 13 14 15 14 14 14 13 13 11 9 10 11 12 11 10 9 7 6 6 7 7 7 6 4 9 9 7 5
15 14 13 14 15 15 14 15 16 15 13 12 12 12 12 12 12 12 10 9 8 7 7 6 7 6 6 6 5 9 9 9 5
15 14 11 11 11 11 12 13 13 13 13 12 13 13 14 13 13 12 9 8 7 7 6 6 6 6 5 4 2 8 9 10 5
11 14 14 15 15 14 14 14 14 14 12 14 14 14 14 12 12 10 8 8 8 6 6 4 4 5 6 5 4 5 7 6 4
4 14 10 13 16 15 15 14 15 15 14 15 15 14 13 11 9 11 9 9 8 5 5 5 5 6 7 8 6 6 5 5 2
7 6 10 12 17 18 16 14 15 13 14 14 12 12 11 8 9 9 9 7 4 5 5 5 5 6 5 4 5 6 7 6 3
13 8 7 14 14 12 12 13 13 9 7 9 10 11 11 9 8 7 6 8 4 5 6 6 4 2 3 3 6 6 7 7 6
10 8 4 9 12 14 11 12 15 16 17 16 9 13 9 9 9 8 7 7 6 4 4 3 3 2 3 0 0 3 8 8 9
8 6 3 10 14 15 13 12 14 15 14 15 14 12 10 7 7 8 8 5 5 4 4 4 4 4 4 3 2 4 4 4 2
7 4 6 4 9 13 14 13 15 17 19 21 21 20 16 15 11 8 6 5 3 4 4 6 6 4 4 5 4 5 6 6 4
3 3 4 7 8 13 12 14 18 18 19 20 11 11 9 7 10 5 4 6 4 8 6 3 5 11 8 5 6 8 11 11 10
7 7 5 5 5 9 11 12 14 13 12 10 10 11 12 9 8 7 6 5 6 5 2 2 5 8 9 8 6 8 10 9 7
Wind_Direction
153 234 177 191 211 208 197 184 184 187 189 197 182 162 150 139 130 139 156 166 154 142 156 148 130 101 95 67 55 72 74 67 75
249 242 239 210 218 210 209 182 188 190 187 187 161 141 131 136 135 137 161 141 116 124 123 135 122 108 90 65 54 91 78 64 80
245 258 233 222 225 211 206 181 190 184 178 165 144 130 139 141 138 140 137 119 129 131 130 110 108 101 94 75 60 73 81 70 64
227 307 216 218 216 206 200 166 160 156 151 143 140 138 138 136 137 139 127 127 130 130 119 121 113 121 112 101 91 97 92 99 99
266 324 206 198 185 165 152 160 150 156 146 143 142 143 140 136 143 140 130 132 129 132 130 121 125 129 115 109 105 112 114 108 123
260 235 222 142 128 140 147 148 149 147 145 142 144 142 140 149 148 141 133 131 145 130 121 109 117 118 122 102 86 75 118 112 109
249 172 197 146 114 123 135 140 142 138 136 145 147 148 153 151 155 140 140 142 128 119 119 113 113 89 93 101 90 65 60 95 105
163 166 184 155 137 138 138 135 138 140 147 150 151 152 152 152 132 129 124 127 127 125 126 129 111 116 100 98 83 76 90 88 112
187 178 169 159 152 148 151 151 152 152 153 153 151 147 133 122 130 134 135 134 129 125 125 123 114 110 115 103 93 90 93 97 128
188 184 172 172 169 163 159 159 156 157 154 146 143 134 133 133 135 133 140 139 131 129 121 109 117 124 128 125 128 113 98 95 88
190 186 175 168 163 162 160 154 152 143 145 144 139 138 138 140 143 145 142 125 122 113 115 123 125 138 125 123 177 133 107 101 95
187 186 189 177 166 162 159 163 155 147 142 142 144 145 143 143 141 135 126 124 125 123 124 124 138 151 154 163 201 159 114 96 84
166 206 173 165 166 161 159 163 153 145 148 152 152 147 147 141 132 129 136 138 140 143 139 152 155 159 182 188 187 203 144 104 84
338 286 179 167 164 168 163 148 145 154 155 160 149 135 128 120 126 132 137 132 113 127 137 144 183 165 177 201 200 199 176 141 126
348 344 149 158 156 153 133 144 142 129 111 115 120 119 121 127 137 128 119 124 118 133 142 147 176 136 120 214 221 192 193 179 168
349 349 151 142 127 125 124 134 134 128 136 130 141 130 139 123 105 116 137 143 143 147 138 154 172 181 184 349 176 178 191 199 215
349 1 74 128 124 125 128 150 145 132 127 103 88 73 55 95 163 162 154 140 139 142 153 144 122 110 124 141 162 183 213 227 278
12 360 53 69 125 139 146 140 121 127 131 127 136 167 166 190 165 145 123 120 151 162 193 161 139 165 165 152 194 227 209 196 224
9 61 91 112 142 145 154 147 141 145 152 153 155 160 154 139 135 154 154 127 119 37 86 67 200 165 169 231 223 225 216 221 231
82 76 71 80 154 161 163 159 153 158 155 143 146 142 134 149 136 152 147 146 158 153 23 25 251 208 208 204 221 253 231 223 240